Miscellaneous Local Product
Issued by NWS Hastings, NE

Home | Current Version | Previous Version | Graphics & Text | Print | Product List | Glossary On
Versions: 1 2 3 4 5 6 7 8 9 10 11 12 13 14 15 16 17 18 19 20 21 22 23 24 25 26 27 28 29 30 31 32 33 34 35 36 37 38 39 40 41 42 43 44 45 46 47 48 49 50
000
AXUS43 KGID 220302
MISGRI

GID CWA HOURLY WEATHER ROUNDUP
NATIONAL WEATHER SERVICE HASTINGS NE
1000 PM CDT THU AUG 21 2014

NOTE: "FAIR" INDICATES FEW OR NO CLOUDS BELOW 12,000 FEET WITH NO
SIGNIFICANT WEATHER AND/OR OBSTRUCTIONS TO VISIBILITY.

...SOUTH CENTRAL NEBRASKA...

CITY           SKY/WX    TMP DP  RH WIND       PRES   REMARKS
GRAND ISLAND   LGT RAIN  79  72  79 SE7       29.92R
HASTINGS       MOCLDY    74  67  78 E3        29.90S
KEARNEY        PTCLDY    75  73  94 NE7       29.92S
ORD            MOCLDY    75  69  81 NW3       29.92R
YORK           LGT RAIN  72 N/A N/A CALM      29.89F
AURORA         MOCLDY    78  67  68 E5G21     29.88F
LEXINGTON      PTCLDY    76  72  85 NE5       29.93S
HOLDREGE       MOCLDY    76  73  89 CALM      29.92S
HEBRON         CLOUDY    75  67  76 E6        29.88S THUNDER

...NEBRASKA PANHANDLE...

CITY           SKY/WX    TMP DP  RH WIND       PRES   REMARKS
CHADRON        PTCLDY    76  55  48 S10       29.94R
ALLIANCE       PTCLDY    71  50  47 S7        30.01R
SCOTTSBLUFF    MOCLDY    76  49  38 CALM      30.02S
SIDNEY         PTCLDY    68  53  58 CALM      30.06R

...WESTERN AND NORTH CENTRAL NEBRASKA...

CITY           SKY/WX    TMP DP  RH WIND       PRES   REMARKS
VALENTINE      MOCLDY    75  57  53 E7        29.95R
AINSWORTH      MOCLDY    70  64  80 E6        29.96R
ONEILL         PTCLDY    74  66  75 NE5       29.94R
BROKEN BOW     PTCLDY    71  67  87 CALM      29.95R
IMPERIAL       CLEAR     75  59  57 E5        29.98R
NORTH PLATTE   CLEAR     70  61  73 E3        29.96R
MCCOOK         CLEAR     76  65  68 NE5       29.94R

...EASTERN NEBRASKA...

CITY           SKY/WX    TMP DP  RH WIND       PRES   REMARKS
NORFOLK        PTCLDY    78  72  81 CALM      29.88R
SO SIOUX CITY  PTCLDY    79  75  87 CALM      29.86R
TEKAMAH        PTCLDY    78  73  84 CALM      29.85R
COLUMBUS       MOCLDY    64 N/A N/A SW3       29.90R
ALBION         MOCLDY    76  72  85 CALM      29.91R
OMAHA EPPLEY   CLOUDY    83  74  74 SE5       29.85S
OFFUTT AFB     MOCLDY    78  78 100 E3        29.85R
MILLARD        MOCLDY    82  76  81 CALM      29.85S
LINCOLN        CLOUDY    83  72  69 SE5       29.87R
NEBRASKA CITY  CLOUDY    79  79 100 NE3       29.86R
BEATRICE       CLOUDY    80  76  88 E8        29.85F
FALLS CITY     MOCLDY    83  79  88 CALM      29.84R HX  94

...NORTHERN KANSAS...

CITY           SKY/WX    TMP DP  RH WIND       PRES   REMARKS
GOODLAND       CLEAR     74  53  48 E3        30.00R
HILL CITY      PTCLDY    82  67  60 N6        29.89R
NORTON         CLEAR     79  64  61 NE6       29.91R
PHILLIPSBURG   CLEAR     81  64  57 E3        29.88S
SMITH CENTER   CLEAR     75  66  73 E7        29.89R
HAYS           PTCLDY    84  64  51 E5        29.87R
RUSSELL        PTCLDY    92  64  39 S13G22    29.85R HX  93
CONCORDIA      CLOUDY    82  70  66 NW25G43   29.88R THUNDER
SALINA         PTCLDY    89  68  49 S21G28    29.84S HX  93
TOPEKA         CLEAR     90  73  57 S13       29.88R HX  98



USA.gov is the U.S. government's official web portal to all federal, state and local government web resources and services.